| time (UTC) | temp F | wind direction | speed MPH | gust MPH | rain 1hr in | rain 24hr in | rain mn in | humidity % | barometer mb |
| 20260508004501 | 0 | 0.0 | 2.0 | 0.00 | 0.00 | 0.00 | 1005.8 | ||
| 20260508003001 | 0 | 0.0 | 1.0 | 0.00 | 0.00 | 0.00 | 1005.8 | ||
| 20260508001501 | 0 | 0.0 | 0.0 | 0.00 | 0.00 | 0.00 | 1006.0 | ||
| 20260508000001 | 0 | 0.0 | 0.0 | 0.00 | 0.00 | 0.00 | 1006.3 | ||
| 20260507234502 | 0 | 0.0 | 1.0 | 0.00 | 0.00 | 0.00 | 1006.4 | ||
| 20260507233002 | 0 | 0.0 | 0.0 | 0.00 | 0.00 | 0.00 | 1006.3 | ||
| 20260507231501 | 0 | 0.0 | 1.0 | 0.00 | 0.00 | 0.00 | 1006.5 | ||
| 20260507230001 | 0 | 0.0 | 1.0 | 0.00 | 0.00 | 0.00 | 1006.5 | ||
| 20260507224501 | 0 | 0.0 | 1.0 | 0.00 | 0.00 | 0.00 | 1006.6 | ||
| 20260507223001 | 0 | 0.0 | 1.0 | 0.00 | 0.00 | 0.00 | 1006.6 | ||
| 20260507221503 | 0 | 0.0 | 1.0 | 0.00 | 0.00 | 0.00 | 1006.7 | ||
| 20260507214709 | 0 | 0.0 | 0.0 | 0.00 | 0.00 | 0.00 | 1006.6 | ||
| 20260507213208 | 0 | 0.0 | 0.0 | 0.00 | 0.00 | 0.00 | 1006.4 | ||
| 20260507211709 | 0 | 0.0 | 0.0 | 0.00 | 0.00 | 0.00 | 1006.3 | ||
| 20260507210209 | 0 | 0.0 | 1.0 | 0.00 | 0.00 | 0.00 | 1006.3 | ||
| 20260507204709 | 0 | 0.0 | 1.0 | 0.00 | 0.00 | 0.00 | 1006.3 | ||
| 20260507203209 | 0 | 0.0 | 0.0 | 0.00 | 0.00 | 0.00 | 1006.3 | ||
| 20260507201709 | 0 | 0.0 | 0.0 | 0.00 | 0.00 | 0.00 | 1006.3 | ||
| 20260507200209 | 0 | 0.0 | 0.0 | 0.00 | 0.00 | 0.00 | 1006.3 | ||
| 20260507194709 | 0 | 0.0 | 0.0 | 0.00 | 0.00 | 0.00 | 1006.1 | ||
| 20260507193209 | 0 | 0.0 | 0.0 | 0.00 | 0.00 | 0.00 | 1005.9 | ||
| 20260507191709 | 0 | 0.0 | 1.0 | 0.00 | 0.00 | 0.00 | 1005.8 | ||
| 20260507190208 | 0 | 0.0 | 1.0 | 0.00 | 0.00 | 0.00 | 1005.8 | ||
| 20260507184709 | 0 | 1.0 | 1.0 | 0.00 | 0.00 | 0.00 | 1005.7 | ||
| 20260507183209 | 0 | 1.0 | 1.0 | 0.00 | 0.00 | 0.00 | 1005.5 | ||
| 20260507181709 | 0 | 0.0 | 1.0 | 0.00 | 0.00 | 0.00 | 1005.4 | ||
| 20260507180208 | 0 | 0.0 | 1.0 | 0.00 | 0.00 | 0.00 | 1005.5 | ||
| 20260507174709 | 0 | 0.0 | 1.0 | 0.00 | 0.00 | 0.00 | 1005.2 | ||
| 20260507173209 | 0 | 0.0 | 3.0 | 0.00 | 0.00 | 0.00 | 1005.2 | ||
| 20260507171709 | 0 | 0.0 | 4.0 | 0.00 | 0.00 | 0.00 | 1005.4 | ||
| 20260507170209 | 0 | 0.0 | 6.0 | 0.00 | 0.00 | 0.00 | 1005.6 | ||
| 20260507164709 | 0 | 1.0 | 3.0 | 0.00 | 0.00 | 0.00 | 1005.5 | ||
| 20260507163209 | 0 | 1.0 | 4.0 | 0.00 | 0.00 | 0.00 | 1005.5 | ||
| 20260507161709 | 0 | 3.0 | 6.0 | 0.00 | 0.00 | 0.00 | 1005.5 | ||
| 20260507160210 | 0 | 2.0 | 7.0 | 0.00 | 0.00 | 0.00 | 1005.4 | ||
| 20260507154709 | 0 | 2.0 | 6.0 | 0.00 | 0.00 | 0.00 | 1005.4 | ||
| 20260507153209 | 0 | 0.0 | 7.0 | 0.00 | 0.00 | 0.00 | 1005.5 | ||
| 20260507151709 | 0 | 2.0 | 6.0 | 0.00 | 0.00 | 0.00 | 1005.4 | ||
| 20260507150209 | 0 | 2.0 | 7.0 | 0.00 | 0.00 | 0.00 | 1005.5 | ||
| 20260507144709 | 0 | 4.0 | 8.0 | 0.00 | 0.00 | 0.00 | 1005.4 | ||
| 20260507143211 | 0 | 2.0 | 6.0 | 0.00 | 0.00 | 0.00 | 1005.5 | ||
| 20260507141709 | 0 | 2.0 | 9.0 | 0.00 | 0.00 | 0.00 | 1005.6 | ||
| 20260507140209 | 0 | 4.0 | 8.0 | 0.00 | 0.00 | 0.00 | 1005.6 | ||
| 20260507134709 | 0 | 4.0 | 7.0 | 0.00 | 0.00 | 0.00 | 1005.7 | ||
| 20260507133209 | 0 | 7.0 | 10.0 | 0.00 | 0.00 | 0.00 | 1006.0 | ||
| 20260507131709 | 0 | 4.0 | 8.0 | 0.00 | 0.00 | 0.00 | 1006.1 | ||
| 20260507130209 | 0 | 4.0 | 7.0 | 0.00 | 0.00 | 0.00 | 1006.0 | ||
| 20260507124709 | 0 | 4.0 | 7.0 | 0.00 | 0.00 | 0.00 | 1005.9 | ||
| 20260507123209 | 0 | 2.0 | 7.0 | 0.00 | 0.00 | 0.00 | 1005.8 | ||
| 20260507121709 | 0 | 4.0 | 7.0 | 0.00 | 0.00 | 0.00 | 1005.6 | ||
| 20260507120209 | 0 | 4.0 | 6.0 | 0.00 | 0.00 | 0.00 | 1005.5 | ||
| 20260507114709 | 0 | 1.0 | 8.0 | 0.00 | 0.00 | 0.00 | 1005.6 | ||
| 20260507113209 | 0 | 2.0 | 6.0 | 0.00 | 0.00 | 0.00 | 1005.6 | ||
| 20260507111709 | 0 | 2.0 | 7.0 | 0.00 | 0.00 | 0.00 | 1006.0 | ||
| 20260507110209 | 0 | 1.0 | 4.0 | 0.00 | 0.00 | 0.00 | 1005.9 | ||
| 20260507104709 | 0 | 1.0 | 5.0 | 0.00 | 0.00 | 0.00 | 1006.0 | ||
| 20260507103209 | 0 | 1.0 | 4.0 | 0.00 | 0.00 | 0.00 | 1005.8 | ||
| 20260507101709 | 0 | 1.0 | 4.0 | 0.00 | 0.00 | 0.00 | 1005.9 | ||
| 20260507100209 | 0 | 2.0 | 6.0 | 0.00 | 0.00 | 0.00 | 1005.9 | ||
| 20260507094709 | 0 | 5.0 | 8.0 | 0.00 | 0.00 | 0.00 | 1005.8 | ||
| 20260507093210 | 0 | 3.0 | 10.0 | 0.00 | 0.00 | 0.00 | 1005.8 | ||
| 20260507091709 | 0 | 2.0 | 6.0 | 0.00 | 0.00 | 0.00 | 1005.6 | ||
| 20260507090209 | 0 | 4.0 | 9.0 | 0.00 | 0.00 | 0.00 | 1005.4 | ||
| 20260507084709 | 0 | 0.0 | 6.0 | 0.00 | 0.00 | 0.00 | 1005.1 | ||
| 20260507083210 | 0 | 2.0 | 8.0 | 0.00 | 0.00 | 0.00 | 1005.0 | ||
| 20260507081709 | 0 | 3.0 | 8.0 | 0.00 | 0.00 | 0.00 | 1004.9 | ||
| 20260507080209 | 0 | 3.0 | 6.0 | 0.00 | 0.00 | 0.00 | 1004.9 | ||
| 20260507074709 | 0 | 3.0 | 5.0 | 0.00 | 0.00 | 0.00 | 1004.9 | ||
| 20260507073208 | 0 | 2.0 | 3.0 | 0.00 | 0.00 | 0.00 | 1004.9 | ||
| 20260507071709 | 0 | 0.0 | 1.0 | 0.00 | 0.00 | 0.00 | 1004.9 | ||
| 20260507070208 | 0 | 0.0 | 0.0 | 0.00 | 0.00 | 0.00 | 1004.6 | ||
| 20260507064709 | 0 | 0.0 | 1.0 | 0.00 | 0.00 | 0.00 | 1004.6 | ||
| 20260507063210 | 0 | 0.0 | 1.0 | 0.00 | 0.00 | 0.00 | 1004.5 | ||
| 20260507061708 | 0 | 0.0 | 0.0 | 0.00 | 0.00 | 0.00 | 1004.2 | ||
| 20260507060210 | 0 | 0.0 | 0.0 | 0.00 | 0.00 | 0.00 | 1004.1 | ||
| 20260507054709 | 0 | 0.0 | 0.0 | 0.00 | 0.00 | 0.00 | 1004.0 | ||
| 20260507053210 | 0 | 0.0 | 0.0 | 0.00 | 0.00 | 0.00 | 1004.0 | ||
| 20260507051708 | 0 | 0.0 | 0.0 | 0.00 | 0.00 | 0.00 | 1003.9 | ||
| 20260507050209 | 0 | 0.0 | 0.0 | 0.00 | 0.00 | 0.00 | 1003.6 | ||
| 20260507044708 | 0 | 0.0 | 0.0 | 0.00 | 0.00 | 0.00 | 1003.4 | ||
| 20260507043209 | 0 | 0.0 | 0.0 | 0.00 | 0.00 | 0.00 | 1003.5 | ||
| 20260507041709 | 0 | 0.0 | 0.0 | 0.00 | 0.00 | 0.00 | 1003.5 | ||
| 20260507040210 | 0 | 0.0 | 1.0 | 0.00 | 0.00 | 0.00 | 1003.5 | ||
| 20260507034501 | 0 | 0.0 | 0.0 | 0.00 | 0.00 | 0.00 | 1003.3 | ||
| 20260507033002 | 0 | 0.0 | 0.0 | 0.00 | 0.00 | 0.00 | 1003.1 | ||
| 20260507031502 | 0 | 0.0 | 1.0 | 0.00 | 0.00 | 0.00 | 1003.1 | ||
| 20260507030001 | 0 | 0.0 | 0.0 | 0.00 | 0.00 | 0.00 | 1003.1 | ||
| 20260507024501 | 0 | 0.0 | 0.0 | 0.00 | 0.00 | 0.00 | 1003.1 | ||
| 20260507023001 | 0 | 0.0 | 0.0 | 0.00 | 0.00 | 0.00 | 1003.0 | ||
| 20260507021501 | 0 | 0.0 | 1.0 | 0.00 | 0.00 | 0.00 | 1003.0 | ||
| 20260507020002 | 0 | 0.0 | 2.0 | 0.00 | 0.00 | 0.00 | 1002.8 | ||
| 20260507014502 | 0 | 1.0 | 2.0 | 0.00 | 0.00 | 0.00 | 1002.8 | ||
| 20260507013002 | 0 | 1.0 | 2.0 | 0.00 | 0.00 | 0.00 | 1002.6 | ||
| 20260507011502 | 0 | 0.0 | 0.0 | 0.00 | 0.00 | 0.00 | 1002.7 | ||
| 20260507010004 | 0 | 0.0 | 1.0 | 0.00 | 0.00 | 0.00 | 1002.7 |